Regional Weather Roundup
Issued by NWS

Home | Current Version | Previous Version | Graphics & Text | Print | Product List | Glossary On
Versions: 1 2 3 4 5 6 7 8 9 10 11 12 13 14 15 16 17 18 19 20 21 22 23 24 25 26 27 28 29 30 31 32 33 34 35 36 37 38 39 40 41 42 43 44 45 46 47 48 49 50
000
ASUS43 KFSD 170910
RWRSD

WEATHER ROUNDUP FOR SOUTH DAKOTA
NATIONAL WEATHER SERVICE SIOUX FALLS SD
400 AM CDT THU AUG 17 2017

NOTE: "FAIR" INDICATES FEW OR NO CLOUDS BELOW 12,000 FEET WITH NO
SIGNIFICANT WEATHER AND/OR OBSTRUCTIONS TO VISIBILITY.


SDZ001>005-009-010-012>017-171000-
NORTHWEST AND NORTH CENTRAL SOUTH DAKOTA

CITY           SKY/WX    TMP DP  RH WIND       PRES   REMARKS
BUFFALO          N/A     58  49  72 SE8       29.85F
FAITH            N/A     58  49  72 S10       29.93F
MOBRIDGE       CLEAR     55  54  96 N5        29.88S FOG
$$

SDZ012>016-024>037-041>051-057-063-072>074-171000-
SOUTHWEST AND SOUTH CENTRAL SOUTH DAKOTA

CITY           SKY/WX    TMP DP  RH WIND       PRES   REMARKS
RAPID CTY ARPT CLEAR     55  49  80 CALM      29.96F
PIERRE         CLEAR     56  51  84 SW8       29.90S
CUSTER         CLEAR     55  43  63 W7        30.09F
ELLSWORTH AFB  CLEAR     60  49  68 S7        29.95F
PHILIP         CLEAR     50  48  93 CALM      29.94F
PINE RIDGE     CLEAR     50  49  96 CALM      30.00F
SPEARFISH      FAIR      68  39  34 S9G20     29.96F
WINNER         FAIR      58  51  78 SW8       29.93S
$$

SDZ004>011-016>023-039-040-171000-
NORTHEAST SOUTH DAKOTA

CITY           SKY/WX    TMP DP  RH WIND       PRES   REMARKS
ABERDEEN       CLEAR     57  56  96 NW7       29.83S
WATERTOWN      CLOUDY    62  61  96 NW16      29.77R
BROOKINGS      CLOUDY    64  61  90 NW18      29.76R
SISSETON         N/A     63  62  97 NW16G24   29.74F
$$

SDZ017-020-022-023-036>040-048>070-171000-
SOUTHEAST SOUTH DAKOTA

CITY           SKY/WX    TMP DP  RH WIND       PRES   REMARKS
SIOUX FALLS    CLOUDY    66  66 100 NW15      29.76R
HURON          CLEAR     57  56  96 NW10      29.83S
CHAMBERLAIN    CLEAR     59  58  95 W8        29.90R
MITCHELL       CLEAR     59  58  96 W9        29.84R
$$

ABBREVIATIONS USED IN REMARKS
   TC - TEMPERATURE IN CELSIUS
  WCI - WIND CHILL INDEX
   HX - HEAT INDEX
  VSB - VISIBILITY





USA.gov is the U.S. government's official web portal to all federal, state and local government web resources and services.